Regional Weather Roundup
Issued by NWS Charleston, WV

Home | Current Version | Previous Version | Text Only | Print | Product List | Glossary Off
Versions: 1 2 3 4 5 6 7 8 9 10 11 12 13 14 15 16 17 18 19 20 21 22 23 24 25 26 27 28 29 30 31 32 33 34 35 36 37 38 39 40 41 42 43 44 45 46 47 48 49 50

224
ASUS41 KRLX 141310
RWRRLX
West Virginia Regional Weather Roundup
National Weather Service Charleston WV
800 AM EST THU DEC 14 2017

Note: "fair" indicates few or no clouds below 12,000 feet with no
significant weather and/or obstructions to visibility.

WVZ003-141400-
Northern Panhandle of West Virginia

CITY           SKY/WX    TMP DP  RH WIND       PRES   REMARKS
WHEELING       LGT SNOW  24  19  81 W7        29.81R
$$

WVZ009-141400-
Northwest West Virginia

CITY           SKY/WX    TMP DP  RH WIND       PRES   REMARKS
PARKERSBURG    CLOUDY    30  20  66 NW13      29.90R
$$

WVZ006-141400-
Western West Virginia

CITY           SKY/WX    TMP DP  RH WIND       PRES   REMARKS
HUNTINGTON     CLOUDY    33  19  56 NW8       29.90R
$$

WVZ015-141400-
West Central West Virginia

CITY           SKY/WX    TMP DP  RH WIND       PRES   REMARKS
CHARLESTON     CLOUDY    34  20  56 NW9G18    29.87R
$$

WVZ022-031-141400-
North Central West Virginia

CITY           SKY/WX    TMP DP  RH WIND       PRES   REMARKS
CLARKSBURG     CLOUDY    31  19  61 NW10      29.82R
MORGANTOWN     CLOUDY    28  17  63 NW8G18    29.81R
$$

WVZ025-035-042-045-141400-
Southern West Virginia

CITY           SKY/WX    TMP DP  RH WIND       PRES   REMARKS
BECKLEY        CLOUDY    32  24  72 NW18G29   29.76R
LOGAN          CLOUDY    36  25  64 CALM      29.83R
BLUEFIELD      CLOUDY    33  23  66 NW16G29   29.73R
LEWISBURG      CLOUDY    33  25  72 NW13G28   29.75R
$$

WVZ047-141400-
Northern Mountains of West Virginia

CITY           SKY/WX    TMP DP  RH WIND       PRES   REMARKS
ELKINS         LGT SNOW  29  20  69 NW17G26   29.77
$$

WVZ052-141400-
Eastern Panhandle of West Virginia

CITY           SKY/WX    TMP DP  RH WIND       PRES   REMARKS
MARTINSBURG    MOCLDY    36  24  62 W20G31    29.64R
PETERSBURG     CLOUDY    35  21  56 W18G35    29.71R
$$




USA.gov is the U.S. government's official web portal to all federal, state and local government web resources and services.